Minatitlan, Mexico

2:16 PM CST on November 20, 2017 (GMT -0600)
Minatitlan

Weather History for MMMT - March, 2013

Change the Weather History Date:

Wednesday, March 27, 2013

  Actual Average Record
Temperature  
Mean Temperature 63 °F -  
Max Temperature 73 °F 86 °F 96 °F (2014)
Min Temperature 53 °F 71 °F 53 °F (2013)
Degree Days  
Heating Degree Days 2    
Growing Degree Days 13 (Base 50)    
Moisture  
Dew Point 59 °F    
Average Humidity 77    
Maximum Humidity 99    
Minimum Humidity 64    
Precipitation  
Precipitation 0.02 in - - ()
Sea Level Pressure  
Sea Level Pressure 30.22 in    
Wind  
Wind Speed 6 mph ()    
Max Wind Speed 14 mph    
Max Gust Speed 21 mph    
Visibility 8.5 miles    
Events      
Averages and records for this station are not official NWS values.
T = Trace of Precipitation, MM = Missing Value Source: Averaged Metar Reports

Daily Weather History Graph

Daily Weather History Graph

Search for Another Location

Airport or City:

Trip Planner

Search our weather history database for the weather conditions in past years. The results will help you decide how hot, cold, wet, or windy it might be!

Date:

Astronomy

Mar. 27, 2013 Rise Set
Actual Time 6:16 AM CST 6:30 PM CST
Civil Twilight 5:54 AM CST 6:52 PM CST
Nautical Twilight 5:29 AM CST 7:18 PM CST
Astronomical Twilight 5:03 AM CST 7:43 PM CST
Moon 7:03 PM CST (3/27) 6:15 AM CST (3/27)
Length of Visible Light 12h 58m
Length of Day
12h 14m
Full, 100% of the Moon is Illuminated
Mar 27
Full
Apr 2
Last Quarter
Apr 10
New
Apr 18
First Quarter
Apr 25
Full

Hourly Weather History & Observations

Time (CST) Temp. Dew Point Humidity Pressure Visibility Wind Dir Wind Speed Gust Speed Precip Events Conditions
12:00 AM 53 °F 53 °F 99% 30.33 in - Calm Calm - -  
3:00 AM 53 °F 53 °F 98% 30.25 in - Calm Calm - -  
5:00 AM 69.8 °F 64.4 °F 83% 30.12 in 10.0 mi NNE 11.5 mph - N/A   Overcast
5:50 AM 69.8 °F 64.4 °F 83% 30.37 in 10.0 mi NNE 11.5 mph - N/A   Overcast
6:00 AM 53 °F 53 °F 99% 30.25 in - Calm Calm - -  
7:45 AM 68.0 °F 64.4 °F 88% 30.17 in 10.0 mi WSW 11.5 mph - N/A   Mostly Cloudy
8:45 AM 73.4 °F 64.4 °F 73% 30.42 in 10.0 mi NNE 11.5 mph - N/A   Overcast
9:00 AM 58 °F 54 °F 83% 30.26 in - Calm Calm - -  
10:00 AM 73.4 °F 64.4 °F 73% 30.18 in 9.0 mi North 13.8 mph - N/A   Overcast
10:44 AM 73.4 °F 64.4 °F 73% 30.18 in 10.0 mi North 8.1 mph - N/A   Overcast
11:48 AM 71.6 °F 60.8 °F 69% 30.39 in 10.0 mi NNE 13.8 mph - N/A   Overcast
12:00 PM 63 °F 55 °F 67% 30.20 in - SE 4.5 mph - -  
12:52 PM 73.4 °F 60.8 °F 65% 30.13 in 8.0 mi North 9.2 mph - N/A   Overcast
1:45 PM 73.4 °F 60.8 °F 65% 30.11 in 7.0 mi North 9.2 mph - N/A   Overcast
2:44 PM 73.4 °F 60.8 °F 65% 30.31 in 7.0 mi North 11.5 mph - N/A   Overcast
3:00 PM 61 °F 54 °F 71% 30.13 in - East 2.2 mph - -  
3:43 PM 73.4 °F 60.8 °F 65% 30.06 in 7.0 mi North 11.5 mph 20.7 mph N/A   Overcast
4:45 PM 73.4 °F 60.8 °F 65% 30.05 in 7.0 mi North 11.5 mph - N/A   Overcast
5:45 PM 71.6 °F 59.0 °F 64% 30.29 in 6.0 mi North 13.8 mph - N/A   Overcast
6:00 PM 60 °F 54 °F 76% 30.13 in - NNE 2.2 mph - -  
9:00 PM 57 °F 55 °F 91% 30.20 in - North 2.2 mph - -